Location: Unspecified
(35.6961°N, 0.0000°E)
Time: 18:39:24
(UTC+00:00)

UNISAT 6 - Pass Details

Date: 25 June 2019
Orbit: 607 x 689 km, 97.8° (Epoch: 15 July)

Event Time Altitude Azimuth Distance (km) Brightness Sun altitude
Rises 19:50:52 0° 33° (NNE) 2,903 ? -6.2°
Reaches altitude 10° 19:53:48 10° 54° (NE) 2,005 ? -6.7°
Maximum altitude 19:56:33 16° 94° (E) 1,633 ? -7.1°
Drops below altitude 10° 19:59:21 10° 133° (SE) 2,027 ? -7.6°
Enters shadow 19:59:40 - 137° (SE) 2,110 ? -7.6°
